Total_Precipitation_Accumulation
1.85 1.83 3.04 3.18 2.94 2.60 2.44 2.48 2.66 2.84 2.99 3.10 2.86 2.65 2.48 2.51 2.69 2.77 2.86 2.73 2.63 2.59 2.63 2.70 2.79 2.77 2.60 2.34 2.41 2.74 3.10 3.17 2.98 2.97 3.27 3.33 3.56 3.68 3.79 3.76 3.63 3.56 3.67
1.43 1.67 2.83 2.95 2.69 2.45 2.41 2.56 2.56 2.62 2.76 2.88 2.90 2.71 2.59 2.60 2.73 2.81 2.86 2.76 2.61 2.53 2.57 2.71 2.83 2.71 2.52 2.39 2.51 2.85 3.05 3.07 3.00 3.18 3.70 3.87 3.95 4.02 3.93 3.71 3.64 3.70 3.77
1.18 1.40 2.12 2.69 2.58 2.38 2.38 2.41 2.46 2.59 2.66 2.63 2.74 2.75 2.67 2.88 2.97 2.93 2.93 2.82 2.73 2.62 2.63 2.64 2.64 2.66 2.45 2.53 2.74 2.80 2.76 2.81 3.02 3.19 3.71 4.22 3.95 4.06 4.07 3.94 3.71 3.80 3.81
0.99 1.22 1.83 2.68 2.62 2.48 2.52 2.59 2.66 2.70 2.50 2.38 2.41 2.47 2.57 2.79 2.96 3.02 3.05 2.91 2.92 2.85 2.67 2.46 2.40 2.58 2.52 2.57 2.78 2.73 2.67 2.83 3.08 3.07 3.38 4.00 3.95 4.15 4.45 4.45 4.12 3.97 4.03
1.03 1.19 1.92 2.76 2.56 2.50 2.56 2.71 2.65 2.54 2.50 2.47 2.49 2.58 2.62 2.79 2.95 3.02 2.98 2.95 2.99 2.94 2.79 2.64 2.48 2.60 2.59 2.60 2.63 2.70 2.84 2.97 3.04 2.69 3.00 3.65 4.48 4.78 4.28 4.46 4.39 4.12 3.91
0.95 1.12 1.77 2.63 2.51 2.46 2.50 2.69 2.52 2.40 2.57 2.64 2.66 2.77 2.81 3.02 3.25 3.19 3.05 3.16 3.06 2.99 2.80 2.77 2.66 2.66 2.62 2.58 2.58 2.70 2.89 2.99 2.61 2.57 2.99 3.51 4.28 4.74 4.09 4.07 4.07 3.98 3.89
0.96 1.08 1.49 2.31 2.39 2.39 2.45 2.56 2.45 2.48 2.66 2.58 2.61 2.75 2.81 2.98 3.20 3.24 3.11 3.18 3.20 3.25 3.11 2.95 2.85 2.72 2.63 2.65 2.61 2.76 2.93 2.74 2.32 2.63 2.97 3.56 4.03 4.29 3.90 3.74 3.83 3.94 4.23
1.08 1.03 1.23 1.93 2.13 2.19 2.41 2.44 2.42 2.44 2.54 2.46 2.52 2.61 2.71 2.83 2.97 3.03 2.98 3.10 3.18 3.20 3.16 2.95 2.82 2.69 2.70 2.67 2.89 3.15 3.08 2.46 2.02 2.39 2.85 3.58 4.39 4.41 3.90 3.60 3.68 3.91 4.23
1.45 1.29 1.30 1.45 1.56 1.91 2.33 2.39 2.44 2.47 2.42 2.32 2.36 2.39 2.41 2.46 2.65 2.73 2.75 2.98 3.17 3.29 3.18 2.91 2.83 2.91 3.07 2.94 2.88 2.95 2.76 2.27 1.97 2.19 2.23 3.46 4.54 4.43 3.88 3.58 3.55 3.67 3.87
1.45 1.44 1.38 1.38 1.39 1.71 1.91 2.22 2.47 2.54 2.41 2.22 2.17 2.13 2.21 2.21 2.31 2.46 2.45 2.84 3.27 3.54 3.37 3.09 2.94 2.86 2.89 2.81 2.66 2.59 2.40 1.94 1.68 1.80 2.33 3.39 4.50 4.44 4.01 3.65 3.48 3.31 3.45
1.39 1.44 1.37 1.37 1.49 1.78 1.90 1.94 2.28 2.45 2.41 2.02 1.78 1.79 1.79 1.76 1.89 2.09 2.17 2.73 3.00 3.31 3.31 3.12 2.82 2.67 2.53 2.46 2.42 2.27 1.85 1.61 1.60 1.83 2.48 3.84 4.64 4.73 4.25 3.83 3.60 3.29 3.08
1.20 1.23 1.25 1.27 1.33 1.52 1.66 2.02 2.19 1.98 2.03 1.71 1.67 1.61 1.56 1.66 1.78 1.66 1.92 2.46 2.72 2.95 3.04 2.92 2.74 2.40 2.04 1.84 1.82 1.77 1.58 1.45 1.53 1.84 2.83 4.20 4.90 5.17 4.61 3.95 3.35 3.01 2.94
1.04 0.96 0.93 1.01 1.07 1.22 1.43 1.58 1.81 2.02 2.01 1.96 1.88 1.77 1.75 1.59 1.50 1.56 1.74 1.91 2.15 2.32 2.35 2.41 2.32 1.98 1.75 1.68 1.66 1.51 1.45 1.30 1.51 1.83 2.91 4.05 4.73 5.11 4.83 4.20 3.49 3.19 3.18
1.10 1.07 0.90 0.86 0.93 1.07 1.17 1.29 1.49 1.66 1.73 1.76 1.71 1.57 1.72 1.67 1.53 1.57 1.79 1.89 1.91 2.07 2.33 2.40 2.33 2.02 1.77 1.59 1.54 1.42 1.34 1.29 1.40 1.66 2.58 3.39 4.10 4.57 4.66 4.36 3.83 3.40 3.23
1.16 1.17 1.01 0.84 0.88 1.04 1.16 1.19 1.18 1.40 1.51 1.53 1.69 1.59 1.55 1.56 1.47 1.40 1.49 1.76 1.86 1.92 2.16 2.27 2.14 2.05 1.99 1.88 1.73 1.58 1.49 1.40 1.41 1.45 1.96 2.62 3.27 3.95 4.43 4.44 4.05 3.52 3.26
1.03 1.08 1.01 0.91 0.95 1.04 1.04 1.03 1.04 1.08 1.28 1.28 1.28 1.21 1.35 1.51 1.48 1.46 1.37 1.54 1.85 1.97 2.05 2.05 1.96 1.99 1.98 1.92 1.78 1.71 1.66 1.45 1.55 1.56 1.71 1.87 2.22 2.78 3.60 4.22 4.10 3.63 3.33
0.90 0.96 1.00 0.99 1.00 1.03 1.07 1.10 1.08 1.17 1.22 1.28 1.25 1.17 1.27 1.40 1.45 1.41 1.32 1.44 1.71 1.93 2.01 2.01 1.93 1.99 1.90 1.77 1.80 1.79 1.74 1.61 1.67 1.71 1.71 1.71 1.68 1.99 2.71 3.52 3.80 3.72 3.59
0.73 0.81 0.92 0.90 0.96 1.02 1.06 1.16 1.19 1.30 1.34 1.37 1.41 1.29 1.25 1.35 1.45 1.56 1.50 1.44 1.65 1.89 2.15 2.32 2.18 2.11 2.04 1.94 1.96 1.90 1.76 1.77 1.73 1.73 1.70 1.72 1.78 1.67 1.91 2.32 2.85 3.38 3.64
0.62 0.64 0.75 0.86 0.91 0.97 1.04 1.14 1.15 1.24 1.48 1.57 1.50 1.46 1.53 1.53 1.49 1.67 1.78 1.69 1.75 1.98 2.10 2.17 2.20 2.10 2.08 2.02 1.85 1.80 1.71 1.77 1.81 1.65 1.64 1.66 1.77 1.78 1.73 1.57 1.82 2.38 3.02
0.60 0.61 0.66 0.79 0.86 0.88 0.98 1.13 1.25 1.24 1.35 1.59 1.64 1.67 1.78 1.87 1.85 1.91 1.99 1.98 1.98 2.09 2.10 2.27 2.50 2.34 2.12 2.07 1.86 1.74 1.69 1.70 1.72 1.70 1.74 1.75 1.77 1.78 1.78 1.63 1.59 1.59 2.06
0.56 0.56 0.65 0.75 0.81 0.83 0.94 1.05 1.16 1.27 1.44 1.67 1.73 1.77 1.90 1.99 2.02 2.10 2.17 2.24 2.19 2.12 2.18 2.38 2.79 2.74 2.39 2.13 2.11 2.00 1.85 1.78 1.80 1.73 1.83 1.90 1.81 1.79 1.86 1.80 1.68 1.55 1.50
0.49 0.52 0.59 0.72 0.84 0.89 0.97 1.10 1.27 1.53 1.59 1.73 1.97 1.97 1.96 1.99 2.01 2.07 2.28 2.40 2.37 2.39 2.46 2.51 2.80 3.02 2.77 2.54 2.55 2.74 2.51 2.29 1.91 1.59 1.61 1.68 1.73 1.78 1.80 1.82 1.75 1.63 1.60
0.46 0.57 0.66 0.79 0.98 1.18 1.29 1.52 1.86 2.13 2.17 2.07 2.09 2.18 2.19 2.19 2.21 2.14 2.21 2.40 2.43 2.44 2.53 2.71 3.00 3.38 3.42 3.09 2.83 3.03 2.81 2.49 2.36 1.83 1.50 1.51 1.63 1.75 1.79 1.86 1.82 1.71 1.67
0.46 0.63 0.86 1.11 1.42 1.65 1.78 1.95 2.22 2.37 2.42 2.29 2.25 2.28 2.34 2.26 2.19 2.17 2.20 2.34 2.51 2.67 2.83 2.86 2.80 3.28 3.69 3.50 3.22 2.81 2.51 2.36 2.49 2.36 1.87 1.53 1.55 1.59 1.66 1.68 1.79 1.88 1.83
0.70 0.94 1.32 1.62 1.88 2.03 2.07 2.14 2.38 2.52 2.68 2.68 2.52 2.37 2.32 2.32 2.30 2.22 2.19 2.20 2.22 2.35 2.52 2.67 2.72 2.99 3.27 3.51 3.48 3.21 2.88 2.68 2.20 2.20 2.27 2.01 1.72 1.46 1.43 1.57 1.76 1.85 1.86
1.15 1.38 1.63 1.80 1.98 2.03 2.01 2.04 2.17 2.38 2.56 2.55 2.52 2.46 2.38 2.31 2.23 2.12 2.05 2.10 2.10 2.08 2.22 2.38 2.54 2.82 3.02 3.19 3.27 3.18 3.10 3.01 2.68 2.35 2.13 2.08 1.93 1.67 1.49 1.49 1.56 1.65 1.73